Voltar ao catálogo

PICOSAT 4

AtivoCiênciaLEO
NORAD 26092·PAYLOAD·🇺🇸 United States

Lançado Jan 27, 2000 de Vandenberg Space Force Base

Loading…

Próximas Passagens (próximas 24 horas)

TLE

AtualizadoSource: Space-Track

Época: Sep 13, 2026, 14:36 UTC

1 26092U 00004K   26256.60860178  .00000435  00000-0  13082-3 0  9999
2 26092 100.2018 301.4824 0030773 248.4954 111.2952 14.48933907399146

Acompanhe PICOSAT 4 em tempo real com AllMySat

Download on the App Store